Terminal Aerodrome Forecast
Issued by NWS Mobile, AL

Home | Current Version | Previous Version | Text Only | Print | Product List | Glossary On
Versions: 1 2 3 4 5 6 7 8 9 10 11 12 13 14 15 16 17 18 19 20 21 22
000
FTUS44 KMOB 102340
TAFPNS
TAF
KPNS 102340Z 1100/1124 26007KT P6SM SKC
     FM111600 22012G18KT P6SM SKC=

USA.gov is the U.S. government's official web portal to all federal, state and local government web resources and services.